Weather History for KPOV - December, 2012

Change the Weather History Date:

Sunday, December 23, 2012

  Actual Average (KCAK) Record (KCAK)
Temperature  
Mean Temperature 25 °F 28 °F  
Max Temperature 35 °F 35 °F 59 °F (1957)
Min Temperature 15 °F 22 °F -6 °F (1960)
Degree Days  
Heating Degree Days 40 37  
Month to date heating degree days 772  
Since 1 July heating degree days 2031  
Cooling Degree Days 0 0  
Month to date cooling degree days 0  
Year to date cooling degree days 652  
Moisture  
Dew Point 20 °F    
Average Humidity 82    
Maximum Humidity 100    
Minimum Humidity 56    
Precipitation  
Precipitation 0.00 in 0.09 in 0.89 in (1990)
Month to date precipitation 2.14  
Year to date precipitation 38.92  
Snow  
Snow 0.00 in 0.40 in - ()
Month to date snowfall 7.3  
Since 1 July snowfall 10.7  
Snow Depth -    
Sea Level Pressure  
Sea Level Pressure 29.94 in    
Wind  
Wind Speed 3 mph (WSW)    
Max Wind Speed 9 mph    
Max Gust Speed -    
Visibility 9 miles    
Events      
T = Trace of Precipitation, MM = Missing Value Source: NWS Daily Summary

Daily Weather History Graph

Daily Weather History Graph

Search for Another Location

Airport or City:

Trip Planner

Search our weather history database for the weather conditions in past years. The results will help you decide how hot, cold, wet, or windy it might be!

Date:

Astronomy

Dec. 23, 2012 Rise Set
Actual Time 7:48 AM EST 5:00 PM EST
Civil Twilight 7:16 AM EST 5:31 PM EST
Nautical Twilight 6:42 AM EST 6:06 PM EST
Astronomical Twilight 6:08 AM EST 6:40 PM EST
Moon 1:51 PM EST (12/23) 3:28 AM EST (12/23)
Length of Visible Light 10h 14m
Length of Day
9h 12m
Waxing Gibbous, 81% of the Moon is Illuminated
Dec 23
Waxing Gibbous
Dec 28
Full
Jan 4
Last Quarter
Jan 11
New
Jan 18
First Quarter

Hourly Weather History & Observations

Time (EST) Temp. Windchill Dew Point Humidity Pressure Visibility Wind Dir Wind Speed Gust Speed Precip Events Conditions
12:05 AM 23.0 °F 18.4 °F 19.4 °F 86% 30.01 in 10.0 mi SSW 3.5 mph - N/A   Unknown
12:25 AM 23.0 °F 18.4 °F 19.4 °F 86% 30.01 in 10.0 mi SW 3.5 mph - N/A   Unknown
12:45 AM 23.0 °F - 19.4 °F 86% 30.01 in 10.0 mi Calm Calm - N/A   Clear
1:05 AM 23.0 °F 18.4 °F 17.6 °F 80% 30.00 in 10.0 mi SSW 3.5 mph - N/A   Unknown
1:25 AM 23.0 °F 17.0 °F 17.6 °F 80% 30.00 in 10.0 mi SW 4.6 mph - N/A   Unknown
1:45 AM 21.2 °F 16.4 °F 17.6 °F 86% 30.00 in 10.0 mi SSW 3.5 mph - N/A   Unknown
2:05 AM 21.2 °F 16.4 °F 17.6 °F 86% 30.00 in 10.0 mi SSW 3.5 mph - N/A   Unknown
2:25 AM 21.2 °F - 17.6 °F 86% 30.00 in 10.0 mi Calm Calm - N/A   Clear
2:45 AM 21.2 °F 16.4 °F 17.6 °F 86% 30.00 in 10.0 mi SW 3.5 mph - N/A   Unknown
3:05 AM 21.2 °F - 17.6 °F 86% 29.98 in 10.0 mi Calm Calm - N/A   Unknown
3:25 AM 21.2 °F - 17.6 °F 86% 29.98 in 10.0 mi Calm Calm - N/A   Unknown
3:45 AM 21.2 °F 16.4 °F 17.6 °F 86% 29.97 in 10.0 mi SW 3.5 mph - N/A   Unknown
4:05 AM 21.2 °F 16.4 °F 17.6 °F 86% 29.95 in 10.0 mi SW 3.5 mph - N/A   Clear
4:25 AM 21.2 °F 16.4 °F 17.6 °F 86% 29.94 in 10.0 mi SW 3.5 mph - N/A   Clear
4:45 AM 21.2 °F - 17.6 °F 86% 29.93 in 10.0 mi Calm Calm - N/A   Clear
5:05 AM 21.2 °F - 17.6 °F 86% 29.93 in 10.0 mi Calm Calm - N/A   Clear
5:25 AM 21.2 °F - 19.4 °F 93% 29.93 in 10.0 mi Calm Calm - N/A   Clear
5:45 AM 19.4 °F - 17.6 °F 93% 29.93 in 7.0 mi Calm Calm - N/A   Clear
6:05 AM 17.6 °F - 17.6 °F 100% 29.92 in 4.0 mi Calm Calm - N/A   Clear
6:25 AM 15.8 °F - 15.8 °F 100% 29.91 in 4.0 mi Calm Calm - N/A   Clear
6:45 AM 17.6 °F - 17.6 °F 100% 29.92 in 7.0 mi Calm Calm - N/A   Clear
7:05 AM 17.6 °F - 17.6 °F 100% 29.91 in 5.0 mi Calm Calm - N/A   Clear
7:25 AM 15.8 °F - 15.8 °F 100% 29.92 in 4.0 mi Calm Calm - N/A   Clear
7:45 AM 17.6 °F - 17.6 °F 100% 29.91 in 5.0 mi Calm Calm - N/A   Clear
8:05 AM 19.4 °F - 19.4 °F 100% 29.92 in 7.0 mi Calm Calm - N/A   Clear
8:25 AM 19.4 °F - 19.4 °F 100% 29.92 in 7.0 mi Calm Calm - N/A   Clear
8:45 AM 19.4 °F - 19.4 °F 100% 29.92 in 7.0 mi Calm Calm - N/A   Clear
9:05 AM 21.2 °F 16.4 °F 21.2 °F 100% 29.92 in 10.0 mi South 3.5 mph - N/A   Clear
9:25 AM 23.0 °F - 23.0 °F 100% 29.92 in 10.0 mi Calm Calm - N/A   Clear
9:45 AM 24.8 °F 19.1 °F 21.2 °F 86% 29.91 in 10.0 mi SW 4.6 mph - N/A   Clear
10:05 AM 26.6 °F 20.0 °F 19.4 °F 74% 29.91 in 10.0 mi WSW 5.8 mph - N/A   Clear
10:25 AM 28.4 °F 21.2 °F 19.4 °F 69% 29.91 in 10.0 mi SW 6.9 mph - N/A   Clear
10:45 AM 28.4 °F 22.2 °F 19.4 °F 69% 29.91 in 10.0 mi WSW 5.8 mph - N/A   Clear
11:05 AM 30.2 °F 21.9 °F 19.4 °F 64% 29.90 in 10.0 mi WSW 9.2 mph - N/A   Clear
11:25 AM 30.2 °F 22.6 °F 19.4 °F 64% 29.90 in 10.0 mi WSW 8.1 mph - N/A   Clear
11:45 AM 32.0 °F 24.8 °F 21.2 °F 64% 29.89 in 10.0 mi WSW 8.1 mph - N/A   Clear
12:05 PM 32.0 °F 26.4 °F 19.4 °F 60% 29.89 in 10.0 mi WSW 5.8 mph - N/A   Clear
12:25 PM 32.0 °F 25.6 °F 21.2 °F 64% 29.89 in 10.0 mi WSW 6.9 mph - N/A   Clear
12:45 PM 33.8 °F 28.6 °F 21.2 °F 60% 29.88 in 10.0 mi West 5.8 mph - N/A   Clear
1:05 PM 33.8 °F 27.7 °F 19.4 °F 56% 29.88 in 10.0 mi WSW 6.9 mph - N/A   Clear
1:25 PM 33.8 °F 27.7 °F 21.2 °F 60% 29.88 in 10.0 mi WSW 6.9 mph - N/A   Clear
1:45 PM 33.8 °F 29.6 °F 19.4 °F 56% 29.88 in 10.0 mi WSW 4.6 mph - N/A   Clear
2:05 PM 35.6 °F 31.7 °F 21.2 °F 56% 29.88 in 10.0 mi West 4.6 mph - N/A   Clear
2:25 PM 35.6 °F 30.7 °F 21.2 °F 56% 29.89 in 10.0 mi WSW 5.8 mph - N/A   Clear
2:45 PM 35.6 °F 31.7 °F 21.2 °F 56% 29.90 in 10.0 mi West 4.6 mph - N/A   Clear
3:05 PM 35.6 °F 31.7 °F 21.2 °F 56% 29.90 in 10.0 mi West 4.6 mph - N/A   Clear
3:25 PM 35.6 °F 30.7 °F 21.2 °F 56% 29.91 in 10.0 mi West 5.8 mph - N/A   Clear
3:45 PM 33.8 °F 29.6 °F 21.2 °F 60% 29.91 in 10.0 mi WNW 4.6 mph - N/A   Clear
4:05 PM 35.6 °F 31.7 °F 21.2 °F 56% 29.92 in 10.0 mi West 4.6 mph - N/A   Clear
4:25 PM 33.8 °F 29.6 °F 21.2 °F 60% 29.91 in 10.0 mi West 4.6 mph - N/A   Clear
4:45 PM 33.8 °F 30.8 °F 21.2 °F 60% 29.91 in 10.0 mi West 3.5 mph - N/A   Clear
5:05 PM 32.0 °F 27.5 °F 21.2 °F 64% 29.91 in 10.0 mi WSW 4.6 mph - N/A   Clear
5:25 PM 32.0 °F 27.5 °F 19.4 °F 60% 29.92 in 10.0 mi WSW 4.6 mph - N/A   Clear
5:45 PM 28.4 °F - 19.4 °F 69% 29.93 in 10.0 mi Calm Calm - N/A   Clear
6:05 PM 28.4 °F 24.6 °F 19.4 °F 69% 29.94 in 10.0 mi West 3.5 mph - N/A   Clear
6:25 PM 26.6 °F 22.6 °F 21.2 °F 80% 29.95 in 10.0 mi NW 3.5 mph - N/A   Clear
6:45 PM 28.4 °F - 21.2 °F 74% 29.95 in 10.0 mi Calm Calm - N/A   Clear
7:05 PM 28.4 °F - 23.0 °F 80% 29.96 in 10.0 mi Calm Calm - N/A   Clear
7:25 PM 26.6 °F - 23.0 °F 86% 29.96 in 10.0 mi Calm Calm - N/A   Clear
7:45 PM 24.8 °F - 23.0 °F 93% 29.97 in 10.0 mi Calm Calm - N/A   Clear
8:05 PM 24.8 °F - 23.0 °F 93% 29.97 in 10.0 mi Calm Calm - N/A   Clear
8:25 PM 23.0 °F - 23.0 °F 100% 29.98 in 7.0 mi Calm Calm - N/A   Clear
8:45 PM 24.8 °F - 24.8 °F 100% 29.98 in 7.0 mi Calm Calm - N/A   Clear
9:05 PM 24.8 °F - 24.8 °F 100% 29.98 in 7.0 mi Calm Calm - N/A   Mostly Cloudy
9:25 PM 26.6 °F - 24.8 °F 93% 29.99 in 10.0 mi Calm Calm - N/A   Mostly Cloudy
9:45 PM 24.8 °F - 24.8 °F 100% 30.00 in 7.0 mi Calm Calm - N/A   Overcast
10:05 PM 24.8 °F - 24.8 °F 100% 30.00 in 7.0 mi Calm Calm - N/A   Overcast
10:25 PM 24.8 °F - 24.8 °F 100% 30.00 in 7.0 mi Calm Calm - N/A   Overcast
10:45 PM 24.8 °F - 24.8 °F 100% 30.00 in 7.0 mi Calm Calm - N/A   Overcast
11:05 PM 24.8 °F - 24.8 °F 100% 30.00 in 7.0 mi Calm Calm - N/A   Overcast
11:25 PM 24.8 °F - 24.8 °F 100% 30.00 in 7.0 mi Calm Calm - N/A   Overcast
11:45 PM 23.0 °F - 23.0 °F 100% 29.99 in 5.0 mi Calm Calm - N/A   Overcast